Hovedside
METAR-TAF:

METAR-TAF

Lufthavner :

Draugen, Norge

Draugenfeltet

breddegrad: 64-21-20N, lengdegrad: 007-47-30E, høyde over havet: 0 m

Gjeldene værobservasjon

Denne rapporten ble laget for 20 minutter siden, klokken 07:20 UTC
Vind 20 kt fra Sør-sørøst
Temperatur 9°C
Luftfuktighet 57%
Trykk 1008 hPa

METAR: ENDR 240720Z AUTO 15020KT 09/01 Q1008

Tid: 09:40 (07:40 UTC)


TAF: fraværende

Værobservasjoner og værvarsel for over 4000 flyplasser (METAR- og TAF-rapporter).

Tilgjengelige stasjoner er representert av de røde og gule prikkene på kartet.

Hold musepekeren over prikken for å se navnet på stasjonen.

Klikk så for å se værobservasjoner og -varsler.

For å forandre kartet kan du klikke på den grønne knappen med svart kryss for å zoome inn, på den grønne knappen med strek for å zoome ut, eller på de grønne pilene for å se tilstøtende kart.


METAR-TAF: